| time (UTC) | temp F | wind direction | speed MPH | gust MPH | rain 1hr in | rain 24hr in | rain mn in | humidity % | barometer mb |
| 20260903054549 | 75 | 233 | 1.0 | 4.0 | 0.02 | 0.57 | 0.01 | 95 | 1012.5 |
| 20260903053107 | 75 | 269 | 1.0 | 6.0 | 0.01 | 0.56 | 0.00 | 95 | 1012.3 |
| 20260903051550 | 75 | 275 | 1.0 | 6.0 | 0.01 | 0.56 | 0.56 | 95 | 1012.1 |
| 20260903034518 | 75 | 271 | 1.0 | 6.0 | 0.20 | 0.53 | 0.53 | 95 | 1012.0 |
| 20260903030029 | 75 | 272 | 1.0 | 4.0 | 0.27 | 0.39 | 0.39 | 95 | 1012.0 |
| 20260903014623 | 76 | 286 | 1.0 | 3.0 | 0.06 | 0.06 | 0.06 | 91 | 1011.2 |
| 20260903013017 | 76 | 255 | 1.0 | 6.0 | 0.04 | 0.04 | 0.04 | 89 | 1011.0 |
| 20260903011644 | 78 | 291 | 2.0 | 7.0 | 0.00 | 0.00 | 0.00 | 84 | 1011.1 |
| 20260903010104 | 79 | 281 | 2.0 | 5.0 | 0.00 | 0.00 | 0.00 | 80 | 1010.8 |
| 20260902233028 | 83 | 294 | 1.0 | 6.0 | 0.00 | 0.00 | 0.00 | 71 | 1010.9 |
| 20260902231617 | 83 | 279 | 1.0 | 7.0 | 0.00 | 0.00 | 0.00 | 71 | 1010.7 |
| 20260902230037 | 84 | 284 | 4.0 | 9.0 | 0.00 | 0.00 | 0.00 | 70 | 1010.6 |
| 20260902214511 | 88 | 267 | 3.0 | 7.0 | 0.00 | 0.00 | 0.00 | 63 | 1010.5 |
| 20260902211644 | 89 | 275 | 2.0 | 10.0 | 0.00 | 0.00 | 0.00 | 61 | 1010.5 |
| 20260902201630 | 88 | 250 | 1.0 | 8.0 | 0.00 | 0.00 | 0.00 | 64 | 1010.9 |
| 20260902173114 | 88 | 250 | 2.0 | 7.0 | 0.00 | 0.00 | 0.00 | 62 | 1012.4 |
| 20260902171515 | 87 | 269 | 3.0 | 9.0 | 0.00 | 0.00 | 0.00 | 63 | 1012.6 |
| 20260902161632 | 84 | 268 | 3.0 | 6.0 | 0.00 | 0.00 | 0.00 | 72 | 1013.7 |
| 20260902160156 | 84 | 286 | 2.0 | 6.0 | 0.00 | 0.00 | 0.00 | 74 | 1013.6 |
| 20260902154652 | 84 | 288 | 2.0 | 5.0 | 0.00 | 0.00 | 0.00 | 76 | 1013.6 |
| 20260902153109 | 84 | 258 | 3.0 | 6.0 | 0.00 | 0.00 | 0.00 | 75 | 1013.5 |
| 20260902151636 | 83 | 237 | 2.0 | 4.0 | 0.00 | 0.00 | 0.00 | 76 | 1013.5 |
| 20260902150117 | 83 | 220 | 1.0 | 6.0 | 0.00 | 0.00 | 0.00 | 76 | 1013.5 |
| 20260902143152 | 83 | 272 | 1.0 | 5.0 | 0.00 | 0.00 | 0.00 | 78 | 1013.6 |
| 20260902131632 | 78 | 273 | 1.0 | 3.0 | 0.00 | 0.00 | 0.00 | 87 | 1013.4 |
| 20260902123054 | 76 | 253 | 1.0 | 3.0 | 0.00 | 0.00 | 0.00 | 89 | 1013.4 |
| 20260902121550 | 76 | 255 | 1.0 | 4.0 | 0.00 | 0.00 | 0.00 | 89 | 1013.3 |
| 20260902111522 | 76 | 254 | 0.0 | 2.0 | 0.00 | 0.00 | 0.00 | 86 | 1013.1 |
| 20260902094612 | 77 | 285 | 0.0 | 2.0 | 0.00 | 0.00 | 0.00 | 83 | 1012.9 |
| 20260902093132 | 78 | 275 | 0.0 | 2.0 | 0.00 | 0.00 | 0.00 | 82 | 1012.9 |
| 20260902083155 | 79 | 271 | 0.0 | 1.0 | 0.00 | 0.00 | 0.00 | 79 | 1012.9 |
| 20260902081621 | 79 | 275 | 0.0 | 2.0 | 0.00 | 0.00 | 0.00 | 78 | 1013.0 |
| 20260902080138 | 79 | 263 | 0.0 | 0.0 | 0.00 | 0.00 | 0.00 | 77 | 1013.1 |
| 20260902074608 | 79 | 273 | 0.0 | 0.0 | 0.00 | 0.00 | 0.00 | 76 | 1013.2 |
| 20260902073138 | 79 | 273 | 0.0 | 0.0 | 0.00 | 0.00 | 0.00 | 75 | 1013.4 |
| 20260902071548 | 80 | 273 | 0.0 | 0.0 | 0.00 | 0.00 | 0.00 | 74 | 1013.3 |
| 20260902070108 | 80 | 273 | 0.0 | 0.0 | 0.00 | 0.00 | 0.00 | 73 | 1013.3 |
| 20260902064518 | 80 | 273 | 0.0 | 0.0 | 0.00 | 0.00 | 0.00 | 73 | 1013.3 |
| 20260902063053 | 81 | 282 | 0.0 | 0.0 | 0.00 | 0.00 | 0.00 | 72 | 1013.3 |
| 20260902061512 | 81 | 277 | 0.0 | 0.0 | 0.00 | 0.00 | 0.00 | 71 | 1013.4 |
| 20260902060110 | 82 | 272 | 0.0 | 1.0 | 0.00 | 0.00 | 0.00 | 70 | 1013.2 |